When you browse on this site, cookies collect data to enhance your experience and personalize the content and advertising you see.
Visit our Privacy Policy to learn more. By continuing to use the site, you agree to this use of cookies and data.

Meteo orario Herceg Novi

Oggi, 16 Luglio, Giovedi

Tempo Temperatura Precipitazioni Vento Pressione Umidità
00:00 +21°C° 0 mm 1 m/s 759 mm Hg 68%
01:00 +20°C° 0 mm 1 m/s 759 mm Hg 68%
02:00 +19°C° 0 mm 2 m/s 758 mm Hg 68%
03:00 +19°C° 0 mm 2 m/s 758 mm Hg 68%
04:00 +18°C° 0 mm 2 m/s 758 mm Hg 69%
05:00 +21°C° 0 mm 1 m/s 758 mm Hg 65%
06:00 +23°C° 0 mm 1 m/s 758 mm Hg 62%
07:00 +25°C° 0 mm 1 m/s 758 mm Hg 59%
08:00 +26°C° 0 mm 1 m/s 758 mm Hg 54%
09:00 +28°C° 0 mm 2 m/s 758 mm Hg 49%
10:00 +30°C° 0 mm 2 m/s 758 mm Hg 43%
11:00 +30°C° 0 mm 3 m/s 758 mm Hg 43%
12:00 +30°C° 0 mm 3 m/s 757 mm Hg 43%
13:00 +32°C° 0 mm 4 m/s 757 mm Hg 42%
14:00 +30°C° 0 mm 4 m/s 757 mm Hg 44%
15:00 +30°C° 0 mm 4 m/s 757 mm Hg 46%
16:00 +30°C° 0 mm 4 m/s 756 mm Hg 47%
17:00 +28°C° 0 mm 3 m/s 757 mm Hg 55%
18:00 +26°C° 0 mm 3 m/s 757 mm Hg 63%
19:00 +24°C° 0 mm 3 m/s 757 mm Hg 71%
20:00 +22°C° 0 mm 3 m/s 757 mm Hg 71%
21:00 +23°C° 0 mm 2 m/s 757 mm Hg 72%
22:00 +21°C° 0 mm 2 m/s 757 mm Hg 72%
23:00 +21°C° 0 mm 2 m/s 757 mm Hg 74%

Domani, 17 Luglio, Venerdi

Tempo Temperatura Precipitazioni Vento Pressione Umidità
00:00 +20°C° 0 mm 2 m/s 757 mm Hg 75%
01:00 +20°C° 0 mm 2 m/s 757 mm Hg 76%
02:00 +20°C° 0 mm 2 m/s 757 mm Hg 76%
03:00 +19°C° 0 mm 2 m/s 756 mm Hg 76%
04:00 +19°C° 0 mm 2 m/s 756 mm Hg 76%
05:00 +21°C° 0 mm 2 m/s 756 mm Hg 72%
06:00 +24°C° 0 mm 2 m/s 756 mm Hg 67%
07:00 +26°C° 0 mm 2 m/s 756 mm Hg 62%
08:00 +27°C° 0 mm 2 m/s 756 mm Hg 57%
09:00 +28°C° 0 mm 2 m/s 756 mm Hg 53%
10:00 +30°C° 0 mm 2 m/s 756 mm Hg 49%
11:00 +30°C° 0.1 mm 2 m/s 755 mm Hg 50%
12:00 +30°C° 0.1 mm 2 m/s 755 mm Hg 50%
13:00 +30°C° 0.1 mm 2 m/s 755 mm Hg 50%
14:00 +30°C° 0.1 mm 2 m/s 755 mm Hg 50%
15:00 +30°C° 0.1 mm 2 m/s 755 mm Hg 50%
16:00 +30°C° 0.1 mm 2 m/s 755 mm Hg 50%
17:00 +28°C° 0 mm 2 m/s 755 mm Hg 58%
18:00 +26°C° 0 mm 2 m/s 755 mm Hg 67%
19:00 +24°C° 0 mm 2 m/s 755 mm Hg 76%
20:00 +22°C° 0 mm 3 m/s 755 mm Hg 76%
21:00 +22°C° 0 mm 4 m/s 756 mm Hg 76%
22:00 +21°C° 0 mm 4 m/s 756 mm Hg 77%
23:00 +21°C° 0.2 mm 5 m/s 756 mm Hg 80%

Dopodomani, 18 Luglio, Sabato

Tempo Temperatura Precipitazioni Vento Pressione Umidità
00:00 +21°C° 0.2 mm 5 m/s 756 mm Hg 83%
01:00 +20°C° 0.2 mm 5 m/s 756 mm Hg 87%
02:00 +20°C° 0.5 mm 4 m/s 756 mm Hg 89%
03:00 +20°C° 0.5 mm 2 m/s 756 mm Hg 90%
04:00 +20°C° 0.5 mm 1 m/s 756 mm Hg 92%
05:00 +21°C° 0.2 mm 1 m/s 756 mm Hg 89%
06:00 +22°C° 0.2 mm 1 m/s 756 mm Hg 86%
07:00 +23°C° 0.2 mm 1 m/s 756 mm Hg 83%
08:00 +24°C° 0.6 mm 1 m/s 756 mm Hg 80%
09:00 +25°C° 0.6 mm 1 m/s 756 mm Hg 77%
10:00 +26°C° 0.6 mm 2 m/s 756 mm Hg 75%
11:00 +26°C° 0.7 mm 2 m/s 756 mm Hg 74%
12:00 +26°C° 0.7 mm 2 m/s 756 mm Hg 73%
13:00 +26°C° 0.7 mm 2 m/s 756 mm Hg 73%
14:00 +26°C° 0.5 mm 2 m/s 756 mm Hg 71%
15:00 +27°C° 0.5 mm 2 m/s 755 mm Hg 69%
16:00 +27°C° 0.5 mm 2 m/s 755 mm Hg 68%
17:00 +25°C° 0.4 mm 2 m/s 755 mm Hg 74%
18:00 +22°C° 0.4 mm 3 m/s 755 mm Hg 81%
19:00 +21°C° 0.4 mm 3 m/s 756 mm Hg 87%
20:00 +20°C° 0 mm 2 m/s 756 mm Hg 87%
21:00 +19°C° 0 mm 2 m/s 756 mm Hg 87%
22:00 +19°C° 0 mm 2 m/s 757 mm Hg 87%
23:00 +18°C° 0 mm 2 m/s 757 mm Hg 88%

19 Luglio, Domenica

Tempo Temperatura Precipitazioni Vento Pressione Umidità
00:00 +18°C° 0 mm 2 m/s 757 mm Hg 88%
01:00 +18°C° 0 mm 2 m/s 757 mm Hg 88%
02:00 +17°C° 0 mm 2 m/s 757 mm Hg 88%
03:00 +17°C° 0 mm 2 m/s 757 mm Hg 88%
04:00 +17°C° 0 mm 2 m/s 757 mm Hg 88%
05:00 +18°C° 0 mm 2 m/s 757 mm Hg 84%
06:00 +20°C° 0 mm 2 m/s 757 mm Hg 80%
07:00 +23°C° 0 mm 2 m/s 757 mm Hg 76%
08:00 +25°C° 0 mm 2 m/s 757 mm Hg 68%
09:00 +27°C° 0 mm 2 m/s 757 mm Hg 60%
10:00 +29°C° 0 mm 2 m/s 757 mm Hg 53%
11:00 +29°C° 0.1 mm 2 m/s 757 mm Hg 55%
12:00 +28°C° 0.1 mm 2 m/s 757 mm Hg 57%
13:00 +28°C° 0.1 mm 2 m/s 757 mm Hg 60%
14:00 +28°C° 0.3 mm 2 m/s 757 mm Hg 62%
15:00 +27°C° 0.3 mm 3 m/s 757 mm Hg 63%
16:00 +27°C° 0.3 mm 3 m/s 757 mm Hg 65%
17:00 +26°C° 0.1 mm 3 m/s 757 mm Hg 71%
18:00 +24°C° 0.1 mm 3 m/s 757 mm Hg 77%
19:00 +22°C° 0.1 mm 3 m/s 757 mm Hg 83%
20:00 +21°C° 0 mm 3 m/s 758 mm Hg 83%
21:00 +20°C° 0 mm 3 m/s 758 mm Hg 83%
22:00 +20°C° 0 mm 3 m/s 758 mm Hg 84%
23:00 +19°C° 0 mm 2 m/s 758 mm Hg 83%

20 Luglio, Lunedi

Tempo Temperatura Precipitazioni Vento Pressione Umidità
00:00 +19°C° 0 mm 2 m/s 758 mm Hg 83%
01:00 +19°C° 0 mm 2 m/s 758 mm Hg 82%
02:00 +18°C° 0 mm 2 m/s 758 mm Hg 82%
03:00 +18°C° 0 mm 2 m/s 758 mm Hg 81%
04:00 +18°C° 0 mm 2 m/s 758 mm Hg 80%
05:00 +20°C° 0 mm 2 m/s 758 mm Hg 75%
06:00 +22°C° 0 mm 1 m/s 758 mm Hg 71%
07:00 +24°C° 0 mm 1 m/s 758 mm Hg 66%
08:00 +26°C° 0 mm 1 m/s 758 mm Hg 60%
09:00 +28°C° 0 mm 2 m/s 758 mm Hg 54%
10:00 +29°C° 0 mm 2 m/s 758 mm Hg 47%
11:00 +30°C° 0 mm 2 m/s 758 mm Hg 47%
12:00 +30°C° 0 mm 2 m/s 758 mm Hg 46%
13:00 +31°C° 0 mm 3 m/s 758 mm Hg 45%
14:00 +31°C° 0 mm 3 m/s 758 mm Hg 47%
15:00 +30°C° 0 mm 3 m/s 758 mm Hg 49%
16:00 +30°C° 0 mm 3 m/s 758 mm Hg 51%
17:00 +28°C° 0 mm 3 m/s 758 mm Hg 58%
18:00 +27°C° 0 mm 3 m/s 758 mm Hg 66%
19:00 +25°C° 0 mm 3 m/s 759 mm Hg 74%
20:00 +24°C° 0 mm 3 m/s 759 mm Hg 74%
21:00 +24°C° 0 mm 3 m/s 759 mm Hg 73%
22:00 +23°C° 0 mm 2 m/s 760 mm Hg 73%
23:00 +23°C° 0 mm 2 m/s 760 mm Hg 73%

21 Luglio, Martedi

Tempo Temperatura Precipitazioni Vento Pressione Umidità
00:00 +23°C° 0 mm 2 m/s 759 mm Hg 74%
01:00 +21°C° 0 mm 2 m/s 759 mm Hg 74%
02:00 +21°C° 0 mm 2 m/s 759 mm Hg 73%
03:00 +21°C° 0 mm 2 m/s 759 mm Hg 73%
04:00 +21°C° 0 mm 2 m/s 759 mm Hg 72%
05:00 +23°C° 0 mm 2 m/s 759 mm Hg 69%
06:00 +25°C° 0 mm 1 m/s 759 mm Hg 66%
07:00 +27°C° 0 mm 1 m/s 759 mm Hg 63%
08:00 +29°C° 0 mm 1 m/s 759 mm Hg 57%
09:00 +31°C° 0 mm 1 m/s 760 mm Hg 50%
10:00 +33°C° 0 mm 1 m/s 760 mm Hg 44%
11:00 +34°C° 0 mm 2 m/s 759 mm Hg 43%
12:00 +35°C° 0 mm 2 m/s 759 mm Hg 43%
13:00 +35°C° 0 mm 2 m/s 759 mm Hg 42%
14:00 +35°C° 0 mm 2 m/s 759 mm Hg 43%
15:00 +35°C° 0 mm 2 m/s 759 mm Hg 44%
16:00 +35°C° 0 mm 3 m/s 758 mm Hg 45%
17:00 +32°C° 0 mm 2 m/s 758 mm Hg 53%
18:00 +30°C° 0 mm 2 m/s 758 mm Hg 61%
19:00 +27°C° 0 mm 2 m/s 758 mm Hg 68%
20:00 +27°C° 0 mm 2 m/s 758 mm Hg 69%
21:00 +26°C° 0 mm 2 m/s 759 mm Hg 69%
22:00 +26°C° 0 mm 2 m/s 759 mm Hg 70%
23:00 +25°C° 0 mm 2 m/s 759 mm Hg 70%
Mostrare altro